Tracking 17150 objects as of 4-August-2015
HD Live streaming from Space Station

COSMOS 2251 DEB

Track COSMOS 2251 DEB now!
10-day predictions
COSMOS 2251 DEB is classified as:


NORAD ID: 34544
Int'l Code: 1993-036UE
Perigee: 780.2 km
Apogee: 1,372.0 km
Inclination: 73.9 °
Period: 106.6 minutes
Semi major axis: 7447 km
RCS: 0.0085 m2 (small)
Launch date: June 16, 1993
Source: Commonwealth of Independent States (former USSR) (CIS)

Note: This is SATELLITE DEBRIS
Your satellite tracking list
Your tracking list is empty





NASA's NSSDC Master Catalog

Two Line Element Set (TLE):
1 34544U 93036UE  15214.38559291  .00000237  00000-0  24489-3 0  9998
2 34544 073.9174 184.2604 0397351 191.5529 325.2015 13.50887824317890

Source of the keplerian elements: AFSPC

N2YO: 359